Voltar ao catálogo

COSMOS 1191 DEB

LostHEO
NORAD 32994·DEBRIS·🇷🇺 Russia

Lançado Jul 2, 1980 de Plesetsk Cosmodrome

Loading…

Próximas Passagens (próximas 24 horas)

TLE

ObsoletoSource: Space-Track

Época: Sep 26, 2011, 03:10 UTC

1 32994U 80057M   11269.13248223  .00000797  00000-0  00000+0 0  9993
2 32994  66.7377  96.2986 5672539 113.2276   9.5994  1.99975851    04

Acompanhe COSMOS 1191 DEB em tempo real com AllMySat

Download on the App Store